Location: Newark
(47.4000°N, 7.5833°E)
Time: 23:46:20
(UTC+00:00)

N. Korean satellite - Pass Details

Date: 06 February 2020
Orbit: 456 x 505 km, 97.2° (Epoch: 21 February)

Event Time Altitude Azimuth Distance (km) Brightness Sun altitude
Rises 17:28:29 0° 209° (SSW) 2,474 10.8 -8.9°
Reaches altitude 10° 17:31:15 10° 235° (SW) 1,614 10.4 -9.4°
Maximum altitude 17:33:13 14° 269° (W) 1,375 10.2 -9.7°
Drops below altitude 10° 17:35:13 10° 304° (NW) 1,636 9.9 -10.0°
Sets 17:38:04 0° 330° (NNW) 2,531 10.5 -10.5°
